Normandy Observed Data For Previous 48 Hours

Caption
Day and Hour Reservoir Elevation (behind dam)* Tailwater Elevation (below dam)* Average Hourly Discharge*
9/20/2018 1 AM CDT 872.28 788.17 166
9/20/2018 2 AM CDT 872.28 788.18 166
9/20/2018 3 AM CDT 872.27 788.18 166
9/20/2018 4 AM CDT 872.27 788.17 166
9/20/2018 5 AM CDT 872.26 788.17 166
9/20/2018 6 AM CDT 872.26 788.17 166
9/20/2018 7 AM CDT 872.26 788.18 166
9/20/2018 8 AM CDT 872.25 788.19 166
9/20/2018 9 AM CDT 872.25 788.22 166
9/20/2018 10 AM CDT 872.24 788.22 166
9/20/2018 11 AM CDT 872.24 788.22 166
9/20/2018 12 PM CDT 872.24 788.20 166
9/20/2018 1 PM CDT 872.24 788.19 166
9/20/2018 2 PM CDT 872.23 788.20 166
9/20/2018 3 PM CDT 872.23 788.19 166
9/20/2018 4 PM CDT 872.22 788.17 166
9/20/2018 5 PM CDT 872.22 788.17 166
9/20/2018 6 PM CDT 872.22 788.16 166
9/20/2018 7 PM CDT 872.22 788.16 166
9/20/2018 8 PM CDT 872.21 788.16 166
9/20/2018 9 PM CDT 872.21 788.17 166
9/20/2018 10 PM CDT 872.21 788.17 166
9/20/2018 11 PM CDT 872.21 788.17 166
9/21/2018 12 AM CDT 872.20 788.18 166
9/21/2018 1 AM CDT 872.20 788.18 166
9/21/2018 2 AM CDT 872.19 788.18 166
9/21/2018 3 AM CDT 872.19 788.18 166
9/21/2018 4 AM CDT 872.18 788.17 166
9/21/2018 5 AM CDT 872.18 788.17 166
9/21/2018 6 AM CDT 872.18 788.17 166
9/21/2018 7 AM CDT 872.18 788.18 166
9/21/2018 8 AM CDT 872.18 788.18 166
9/21/2018 9 AM CDT 872.19 788.18 166
9/21/2018 10 AM CDT 872.18 788.18 162
9/21/2018 11 AM CDT 872.18 788.17 162
9/21/2018 12 PM CDT 872.19 788.18 162
9/21/2018 1 PM CDT 872.19 788.19 162
9/21/2018 2 PM CDT 872.20 789.96 162
9/21/2018 3 PM CDT 872.18 789.95 162
9/21/2018 4 PM CDT 872.19 789.49 162
9/21/2018 5 PM CDT 872.19 788.18 162
9/21/2018 6 PM CDT 872.18 788.17 162
9/21/2018 7 PM CDT 872.18 788.17 162
9/21/2018 8 PM CDT 872.18 788.17 162
9/21/2018 9 PM CDT 872.18 788.18 162
9/21/2018 10 PM CDT 872.17 788.18 162
9/21/2018 11 PM CDT 872.17 788.18 162
9/22/2018 12 AM CDT 872.16 788.18 162
9/22/2018 1 AM CDT 872.16 788.18 162
9/22/2018 2 AM CDT 872.16 788.18 162
9/22/2018 3 AM CDT 872.15 788.18 162
9/22/2018 4 AM CDT 872.15 788.18 162
9/22/2018 5 AM CDT 872.15 788.18 162

Elevations are in feet above sea level. Discharges are in cubic feet per second and are reported at the end of the hour.